SVA155 WMKK-VTBD

Flight info

Callsign SVA155
Flight time 2h 10m
Altitude 30000
Route BIKDU1B/14R BIKDU Y501 RIGTO M769 GOKEX Y96 EMTIX/N0457F390 Y99 HOTEL SABAI3A
Aircraft A333/H-SDE3GHIJ2J3J5M1RVWXY/LB2D1

Departure

Time 2026-04-30 18:12
Airport Kuala Lumpur International Airport (WMKK)

Arrival

Time 2026-04-30 20:22
Airport Don Mueang International Airport (VTBD)
Time Latitude Longitude Altitude Speed Heading
2026-04-30 17:39 2.74853 101.71581 79 ft 0 kts 327°
2026-04-30 17:58 2.74834 101.71593 79 ft 2 kts 327°
2026-04-30 17:59 2.74810 101.71635 79 ft 2 kts 253°
2026-04-30 18:00 2.74817 101.71650 79 ft 0 kts 236°
2026-04-30 18:02 2.74817 101.71649 79 ft 0 kts 236°
2026-04-30 18:03 2.74735 101.71583 79 ft 9 kts 181°
2026-04-30 18:04 2.74595 101.71667 79 ft 7 kts 142°
2026-04-30 18:05 2.74455 101.71619 80 ft 4 kts 236°
2026-04-30 18:06 2.74429 101.71583 81 ft 3 kts 234°
2026-04-30 18:07 2.74204 101.71250 76 ft 24 kts 236°
2026-04-30 18:08 2.73947 101.70871 75 ft 17 kts 236°
2026-04-30 18:09 2.73700 101.70499 75 ft 14 kts 256°
2026-04-30 18:10 2.74115 101.70171 68 ft 23 kts 326°
2026-04-30 18:11 2.74381 101.69814 62 ft 16 kts 216°
2026-04-30 18:11 2.73371 101.70423 77 ft 155 kts 147°
2026-04-30 18:12 2.70214 101.72464 2320 ft 205 kts 141°
2026-04-30 18:13 2.68009 101.73977 4058 ft 199 kts 142°
2026-04-30 18:13 2.64858 101.76105 5440 ft 209 kts 142°
2026-04-30 18:14 2.62006 101.78029 6732 ft 213 kts 142°
2026-04-30 18:15 2.58316 101.80521 8334 ft 216 kts 142°
2026-04-30 18:15 2.54622 101.83142 9806 ft 217 kts 124°
2026-04-30 18:16 2.54377 101.85959 10718 ft 215 kts 62°
2026-04-30 18:16 2.55502 101.88169 11558 ft 217 kts 64°
2026-04-30 18:17 2.56402 101.89981 12164 ft 220 kts 64°
2026-04-30 18:17 2.57086 101.91361 12633 ft 222 kts 65°
2026-04-30 18:17 2.58390 101.93576 13336 ft 229 kts 43°
2026-04-30 18:18 2.60389 101.94348 13886 ft 241 kts
2026-04-30 18:18 2.62071 101.94076 14350 ft 246 kts 346°
2026-04-30 18:18 2.63685 101.93523 14781 ft 249 kts 343°
2026-04-30 18:18 2.65312 101.92872 15189 ft 253 kts 341°
2026-04-30 18:19 2.66958 101.92177 15604 ft 255 kts 341°
2026-04-30 18:19 2.68591 101.91476 15986 ft 258 kts 340°
2026-04-30 18:19 2.70258 101.90757 16363 ft 261 kts 340°
2026-04-30 18:19 2.71932 101.90033 16747 ft 264 kts 340°
2026-04-30 18:20 2.73646 101.89292 17101 ft 267 kts 340°
2026-04-30 18:20 2.75346 101.88557 17468 ft 270 kts 340°
2026-04-30 18:20 2.77094 101.87801 17836 ft 272 kts 340°
2026-04-30 18:20 2.78841 101.87045 18181 ft 275 kts 341°
2026-04-30 18:21 2.80594 101.86287 18533 ft 277 kts 340°
2026-04-30 18:21 2.82390 101.85510 18882 ft 280 kts 340°
2026-04-30 18:21 2.84176 101.84737 19224 ft 282 kts 340°
2026-04-30 18:21 2.86002 101.83947 19552 ft 285 kts 340°
2026-04-30 18:22 2.87823 101.83160 19874 ft 287 kts 340°
2026-04-30 18:22 2.91538 101.81551 20497 ft 292 kts 340°
2026-04-30 18:22 2.92775 101.81016 20670 ft 295 kts 340°
2026-04-30 18:23 2.95318 101.79916 21070 ft 298 kts 340°
2026-04-30 18:23 2.97212 101.79096 21345 ft 300 kts 340°
2026-04-30 18:23 2.98512 101.78535 21538 ft 302 kts 340°
2026-04-30 18:23 3.01097 101.77415 21906 ft 305 kts 340°
2026-04-30 18:24 3.05017 101.75719 22447 ft 309 kts 340°
2026-04-30 18:24 3.06998 101.74861 22723 ft 312 kts 340°
2026-04-30 18:24 3.09015 101.73989 22986 ft 314 kts 340°
2026-04-30 18:25 3.11046 101.73109 23222 ft 318 kts 340°
2026-04-30 18:25 3.14442 101.71640 23665 ft 321 kts 339°
2026-04-30 18:25 3.17210 101.70441 24013 ft 325 kts 339°
2026-04-30 18:26 3.20691 101.68934 24475 ft 327 kts 339°
2026-04-30 18:26 3.23469 101.67732 24839 ft 329 kts 339°
2026-04-30 18:26 3.24875 101.67125 25005 ft 330 kts 339°
2026-04-30 18:27 3.29142 101.65279 25455 ft 336 kts 339°
2026-04-30 18:27 3.31296 101.64347 25704 ft 338 kts 339°
2026-04-30 18:28 3.36391 101.62141 26251 ft 342 kts 339°
2026-04-30 18:28 3.37843 101.61511 26414 ft 343 kts 339°
2026-04-30 18:28 3.43023 101.59269 26965 ft 348 kts 339°
2026-04-30 18:29 3.45252 101.58302 27204 ft 349 kts 339°
2026-04-30 18:29 3.51976 101.55389 27879 ft 354 kts 339°
2026-04-30 18:30 3.55776 101.53742 28217 ft 357 kts 339°
2026-04-30 18:30 3.60364 101.51756 28647 ft 360 kts 339°
2026-04-30 18:31 3.62662 101.50758 28846 ft 362 kts 339°
2026-04-30 18:31 3.68117 101.48394 29310 ft 367 kts 339°
2026-04-30 18:32 3.72840 101.46347 29715 ft 370 kts 339°
2026-04-30 18:32 3.75203 101.45322 29894 ft 371 kts 339°
2026-04-30 18:33 3.82349 101.42226 29881 ft 372 kts 339°
2026-04-30 18:33 3.89460 101.39142 29890 ft 371 kts 339°
2026-04-30 18:34 3.96575 101.36056 29895 ft 371 kts 339°
2026-04-30 18:35 4.01346 101.33986 29888 ft 371 kts 339°
2026-04-30 18:35 4.06072 101.31936 29890 ft 370 kts 339°
2026-04-30 18:36 4.13184 101.28851 29890 ft 370 kts 339°
2026-04-30 18:37 4.19519 101.26102 29893 ft 371 kts 339°
2026-04-30 18:37 4.25042 101.23704 29887 ft 371 kts 339°
2026-04-30 18:38 4.29779 101.21647 29904 ft 371 kts 339°
2026-04-30 18:38 4.34530 101.19584 29909 ft 370 kts 339°
2026-04-30 18:39 4.39251 101.17535 29913 ft 370 kts 339°
2026-04-30 18:39 4.43999 101.15473 29922 ft 370 kts 339°
2026-04-30 18:40 4.47941 101.13761 29924 ft 371 kts 339°
2026-04-30 18:40 4.52691 101.11698 29926 ft 370 kts 339°
2026-04-30 18:41 4.58213 101.09299 29929 ft 370 kts 339°
2026-04-30 18:41 4.62960 101.07237 29932 ft 374 kts 339°
2026-04-30 18:42 4.67007 101.05479 29935 ft 385 kts 339°
2026-04-30 18:42 4.72879 101.02926 29930 ft 399 kts 338°
2026-04-30 18:42 4.74575 101.02188 29934 ft 402 kts 339°
2026-04-30 18:45 5.02585 100.90007 29943 ft 453 kts 338°
2026-04-30 18:45 5.05476 100.88749 29960 ft 461 kts 338°
2026-04-30 18:46 5.11487 100.86132 29945 ft 477 kts 338°
2026-04-30 18:46 5.16634 100.83893 29932 ft 487 kts 338°
2026-04-30 18:47 5.23983 100.80692 29925 ft 496 kts 338°
2026-04-30 18:47 5.30358 100.77915 29915 ft 500 kts 338°
2026-04-30 18:48 5.36749 100.75132 29907 ft 503 kts 338°
2026-04-30 18:48 5.43346 100.72652 29911 ft 504 kts 341°
2026-04-30 18:49 5.49899 100.70218 29896 ft 503 kts 341°
2026-04-30 18:49 5.56486 100.67767 29897 ft 500 kts 341°
2026-04-30 18:50 5.62988 100.65346 29904 ft 500 kts 341°
2026-04-30 18:50 5.69529 100.62910 29906 ft 499 kts 341°
2026-04-30 18:51 5.76056 100.60480 29909 ft 499 kts 341°
2026-04-30 18:51 5.82611 100.58037 29900 ft 500 kts 341°
2026-04-30 18:52 5.88018 100.56023 29892 ft 500 kts 341°
2026-04-30 18:52 5.95655 100.53175 29892 ft 501 kts 341°
2026-04-30 18:53 6.02198 100.50735 29891 ft 500 kts 341°
2026-04-30 18:53 6.07668 100.48696 29889 ft 500 kts 341°
2026-04-30 18:54 6.14716 100.46067 29890 ft 499 kts 341°
2026-04-30 18:54 6.19022 100.44461 29890 ft 502 kts 341°
2026-04-30 18:55 6.25068 100.42204 29886 ft 504 kts 341°
2026-04-30 18:55 6.33880 100.38915 29883 ft 505 kts 341°
2026-04-30 18:56 6.44918 100.34792 29879 ft 506 kts 341°
2026-04-30 18:57 6.53701 100.31511 29883 ft 505 kts 341°
2026-04-30 18:57 6.61418 100.28627 29883 ft 505 kts 341°
2026-04-30 18:58 6.70268 100.25565 29867 ft 501 kts 351°
2026-04-30 18:58 6.74891 100.25532 29899 ft 497 kts
2026-04-30 18:59 6.80633 100.26194 29887 ft 498 kts
2026-04-30 19:00 6.95602 100.27843 29892 ft 498 kts
2026-04-30 19:01 7.09425 100.29363 29891 ft 498 kts
2026-04-30 19:02 7.19780 100.30503 29886 ft 498 kts
2026-04-30 19:03 7.33565 100.32021 29880 ft 497 kts
2026-04-30 19:04 7.47355 100.33540 29868 ft 497 kts
2026-04-30 19:05 7.59990 100.34197 29873 ft 497 kts
2026-04-30 19:06 7.75009 100.34532 29871 ft 497 kts
2026-04-30 19:06 7.84263 100.34743 29864 ft 497 kts
2026-04-30 19:07 7.95795 100.35004 29862 ft 496 kts
2026-04-30 19:08 8.07908 100.35280 29863 ft 496 kts
2026-04-30 19:09 8.16873 100.35483 29866 ft 496 kts
2026-04-30 19:09 8.22632 100.35615 29872 ft 496 kts
2026-04-30 19:10 8.37586 100.35954 29870 ft 495 kts
2026-04-30 19:11 8.46546 100.36159 29870 ft 495 kts
2026-04-30 19:12 8.54173 100.36332 29874 ft 495 kts
2026-04-30 19:12 8.61713 100.36504 29866 ft 495 kts
2026-04-30 19:13 8.75699 100.36823 29864 ft 497 kts
2026-04-30 19:14 8.84415 100.37024 29866 ft 497 kts
2026-04-30 19:14 8.91646 100.37192 29867 ft 495 kts
2026-04-30 19:15 8.99115 100.37365 29864 ft 496 kts
2026-04-30 19:15 9.10094 100.37620 29862 ft 496 kts
2026-04-30 19:16 9.17633 100.37794 29872 ft 496 kts
2026-04-30 19:17 9.28673 100.38052 29881 ft 496 kts
2026-04-30 19:17 9.38269 100.38277 29877 ft 496 kts
2026-04-30 19:18 9.45752 100.38451 29873 ft 496 kts
2026-04-30 19:19 9.52012 100.38599 29864 ft 495 kts
2026-04-30 19:19 9.63171 100.38862 29866 ft 495 kts
2026-04-30 19:20 9.70914 100.39044 29864 ft 494 kts
2026-04-30 19:21 9.82184 100.39310 29864 ft 496 kts
2026-04-30 19:22 9.95926 100.39635 29864 ft 496 kts
2026-04-30 19:23 10.17635 100.40151 29865 ft 495 kts
2026-04-30 19:24 10.28018 100.40402 29866 ft 495 kts
2026-04-30 19:25 10.47715 100.40876 29863 ft 494 kts
2026-04-30 19:26 10.65085 100.41296 29864 ft 495 kts
2026-04-30 19:27 10.77206 100.41589 29863 ft 494 kts
2026-04-30 19:28 10.87795 100.41845 29864 ft 494 kts 360°
2026-04-30 19:29 11.05011 100.42261 29850 ft 494 kts 360°
2026-04-30 19:30 11.19352 100.42609 29865 ft 494 kts 360°
2026-04-30 19:31 11.34375 100.40700 29878 ft 488 kts 329°
2026-04-30 19:31 11.37867 100.39050 29843 ft 491 kts 342°
2026-04-30 19:31 11.46804 100.39610 29856 ft 493 kts 21°
2026-04-30 19:32 11.52100 100.42561 29848 ft 488 kts 20°
2026-04-30 19:32 11.55462 100.43448 29837 ft 482 kts
2026-04-30 19:32 11.58809 100.43367 29852 ft 479 kts 349°
2026-04-30 19:33 11.63255 100.41694 29846 ft 476 kts 329°
2026-04-30 19:33 11.66135 100.39950 29860 ft 477 kts 328°
2026-04-30 19:33 11.70775 100.35165 29846 ft 475 kts 300°
2026-04-30 19:34 11.73520 100.30212 29854 ft 475 kts 299°
2026-04-30 19:35 11.78885 100.20455 29857 ft 474 kts 302°
2026-04-30 19:35 11.83767 100.16013 29863 ft 477 kts 333°
2026-04-30 19:35 11.86917 100.14911 29857 ft 480 kts 347°
2026-04-30 19:36 11.89153 100.14663 29847 ft 483 kts 357°
2026-04-30 19:36 11.93571 100.15327 29877 ft 486 kts 11°
2026-04-30 19:36 11.99112 100.16398 29845 ft 485 kts
2026-04-30 19:37 12.03506 100.17140 29152 ft 476 kts
2026-04-30 19:37 12.06776 100.17677 27869 ft 481 kts
2026-04-30 19:37 12.08983 100.18038 26959 ft 485 kts
2026-04-30 19:37 12.13478 100.18773 25051 ft 493 kts
2026-04-30 19:38 12.16834 100.19321 24051 ft 490 kts
2026-04-30 19:38 12.20142 100.19864 22581 ft 477 kts
2026-04-30 19:38 12.23336 100.20388 20911 ft 466 kts
2026-04-30 19:38 12.26484 100.20905 19370 ft 452 kts
2026-04-30 19:39 12.28541 100.21240 18812 ft 431 kts
2026-04-30 19:39 12.32237 100.21845 18268 ft 402 kts 10°
2026-04-30 19:39 12.34082 100.22147 17671 ft 398 kts 10°
2026-04-30 19:39 12.37711 100.22743 16880 ft 392 kts 10°
2026-04-30 19:40 12.40376 100.23181 16372 ft 388 kts 10°
2026-04-30 19:40 12.43031 100.23615 15827 ft 385 kts 10°
2026-04-30 19:40 12.44806 100.23907 15473 ft 382 kts 10°
2026-04-30 19:40 12.48300 100.24480 14782 ft 377 kts
2026-04-30 19:41 12.50022 100.24763 14431 ft 375 kts 10°
2026-04-30 19:41 12.52586 100.25183 13896 ft 372 kts
2026-04-30 19:41 12.55126 100.25600 13370 ft 369 kts 10°
2026-04-30 19:41 12.58509 100.26154 12677 ft 364 kts 10°
2026-04-30 19:42 12.60998 100.26564 12151 ft 362 kts 10°
2026-04-30 19:42 12.63478 100.26970 11613 ft 360 kts 10°
2026-04-30 19:42 12.65934 100.27374 11108 ft 357 kts 10°
2026-04-30 19:42 12.68392 100.27777 10581 ft 354 kts 10°
2026-04-30 19:43 12.70815 100.28176 10064 ft 352 kts 10°
2026-04-30 19:43 12.72436 100.28442 9714 ft 351 kts 10°
2026-04-30 19:43 12.75653 100.28970 9012 ft 349 kts 10°
2026-04-30 19:44 12.80139 100.29708 8122 ft 343 kts 11°
2026-04-30 19:44 12.82525 100.30098 7626 ft 341 kts 11°
2026-04-30 19:44 12.84060 100.30352 7407 ft 343 kts 11°
2026-04-30 19:44 12.87185 100.30866 7313 ft 334 kts 11°
2026-04-30 19:45 12.88738 100.31122 6946 ft 340 kts 11°
2026-04-30 19:45 12.91075 100.31508 6948 ft 338 kts 11°
2026-04-30 19:45 12.93406 100.31892 6992 ft 340 kts 11°
2026-04-30 19:45 12.96516 100.32402 6927 ft 327 kts 11°
2026-04-30 19:46 12.98713 100.32763 6943 ft 310 kts 11°
2026-04-30 19:46 13.00787 100.33065 6933 ft 295 kts
2026-04-30 19:46 13.02136 100.33079 6946 ft 290 kts
2026-04-30 19:46 13.04182 100.33078 6964 ft 289 kts
2026-04-30 19:47 13.06865 100.33077 6963 ft 289 kts
2026-04-30 19:47 13.07540 100.33077 6964 ft 289 kts
2026-04-30 19:47 13.10906 100.33076 6963 ft 289 kts
2026-04-30 19:47 13.12262 100.33077 6960 ft 289 kts
2026-04-30 19:48 13.14256 100.33078 6961 ft 288 kts
2026-04-30 19:48 13.16955 100.33077 6961 ft 289 kts
2026-04-30 19:48 13.18310 100.33078 6962 ft 288 kts
2026-04-30 19:48 13.20314 100.33077 6961 ft 289 kts
2026-04-30 19:49 13.22333 100.33078 6960 ft 288 kts
2026-04-30 19:49 13.27054 100.33078 6962 ft 288 kts
2026-04-30 19:49 13.29067 100.33078 6962 ft 290 kts
2026-04-30 19:50 13.31089 100.33078 6961 ft 290 kts
2026-04-30 19:50 13.32449 100.33079 6962 ft 289 kts
2026-04-30 19:50 13.34431 100.33078 6816 ft 284 kts
2026-04-30 19:50 13.36421 100.33078 6425 ft 287 kts
2026-04-30 19:51 13.38425 100.33078 6108 ft 286 kts
2026-04-30 19:51 13.40427 100.33078 5785 ft 285 kts
2026-04-30 19:51 13.43043 100.33078 5379 ft 283 kts
2026-04-30 19:51 13.45038 100.33078 5128 ft 282 kts
2026-04-30 19:52 13.46328 100.33077 4969 ft 280 kts
2026-04-30 19:52 13.48314 100.33079 4643 ft 280 kts
2026-04-30 19:52 13.50260 100.33078 4308 ft 281 kts
2026-04-30 19:52 13.52864 100.33079 3977 ft 279 kts
2026-04-30 19:53 13.54147 100.33078 3954 ft 277 kts
2026-04-30 19:53 13.56095 100.33078 3972 ft 278 kts
2026-04-30 19:53 13.58704 100.33079 3957 ft 278 kts
2026-04-30 19:53 13.60643 100.33079 3958 ft 279 kts
2026-04-30 19:54 13.61939 100.33079 3959 ft 278 kts
2026-04-30 19:54 13.63885 100.33079 3959 ft 279 kts
2026-04-30 19:54 13.65817 100.33181 3952 ft 277 kts 13°
2026-04-30 19:54 13.67656 100.33638 3963 ft 268 kts 15°
2026-04-30 19:55 13.69442 100.34087 3943 ft 256 kts 15°
2026-04-30 19:55 13.71140 100.34519 3949 ft 250 kts 15°
2026-04-30 19:55 13.73415 100.35100 3963 ft 251 kts 16°
2026-04-30 19:55 13.75109 100.35533 3963 ft 251 kts 15°
2026-04-30 19:56 13.76815 100.35968 3959 ft 251 kts 15°
2026-04-30 19:56 13.77957 100.36260 3959 ft 250 kts 15°
2026-04-30 19:56 13.80208 100.36835 3944 ft 242 kts 16°
2026-04-30 19:56 13.81293 100.37112 3936 ft 239 kts 16°
2026-04-30 19:57 13.82910 100.37528 3952 ft 237 kts 15°
2026-04-30 19:57 13.85051 100.38075 3951 ft 238 kts 15°
2026-04-30 19:57 13.86127 100.38349 3951 ft 239 kts 15°
2026-04-30 19:57 13.88289 100.38902 3952 ft 239 kts 15°
2026-04-30 19:58 13.89363 100.39177 3955 ft 238 kts 16°
2026-04-30 19:58 13.91529 100.39732 3953 ft 239 kts 15°
2026-04-30 19:58 13.92593 100.40004 3953 ft 239 kts 15°
2026-04-30 19:58 13.94215 100.40419 3956 ft 238 kts 15°
2026-04-30 19:59 13.96374 100.40971 3957 ft 237 kts 15°
2026-04-30 19:59 13.97969 100.41379 3922 ft 233 kts 15°
2026-04-30 19:59 14.01038 100.42165 3593 ft 212 kts 16°
2026-04-30 20:00 14.01963 100.42405 3521 ft 202 kts 17°
2026-04-30 20:00 14.03173 100.43025 3276 ft 193 kts 35°
2026-04-30 20:00 14.04748 100.44028 2953 ft 199 kts 33°
2026-04-30 20:00 14.05530 100.44521 2993 ft 202 kts 34°
2026-04-30 20:01 14.07936 100.46035 2956 ft 201 kts 33°
2026-04-30 20:01 14.09128 100.46785 2954 ft 201 kts 33°
2026-04-30 20:01 14.10740 100.47798 2954 ft 201 kts 33°
2026-04-30 20:02 14.12739 100.49055 2955 ft 203 kts 33°
2026-04-30 20:02 14.14363 100.50079 2958 ft 204 kts 33°
2026-04-30 20:03 14.16371 100.51342 2962 ft 202 kts 33°
2026-04-30 20:03 14.17578 100.52100 2960 ft 203 kts 33°
2026-04-30 20:03 14.19185 100.53114 2963 ft 202 kts 33°
2026-04-30 20:03 14.20172 100.54115 2926 ft 197 kts 65°
2026-04-30 20:04 14.20373 100.55465 2968 ft 193 kts 99°
2026-04-30 20:04 14.20241 100.56375 2985 ft 195 kts 98°
2026-04-30 20:04 14.20560 100.57729 2927 ft 199 kts 59°
2026-04-30 20:05 14.22471 100.60301 2937 ft 194 kts 88°
2026-04-30 20:05 14.22145 100.61568 2705 ft 185 kts 125°
2026-04-30 20:05 14.20812 100.63380 2697 ft 193 kts 124°
2026-04-30 20:06 14.20085 100.64542 2653 ft 192 kts 123°
2026-04-30 20:06 14.19127 100.66071 2652 ft 190 kts 131°
2026-04-30 20:06 14.18004 100.66732 2651 ft 181 kts 166°
2026-04-30 20:06 14.16844 100.67042 2702 ft 168 kts 164°
2026-04-30 20:07 14.16095 100.67254 2664 ft 167 kts 164°
2026-04-30 20:07 14.14604 100.67677 2676 ft 167 kts 164°
2026-04-30 20:07 14.12342 100.68321 2670 ft 168 kts 164°
2026-04-30 20:08 14.11214 100.68641 2673 ft 167 kts 164°
2026-04-30 20:08 14.10466 100.68854 2672 ft 167 kts 164°
2026-04-30 20:08 14.08959 100.69282 2672 ft 168 kts 164°
2026-04-30 20:08 14.08200 100.69495 2667 ft 167 kts 165°
2026-04-30 20:09 14.07061 100.69371 2633 ft 168 kts 206°
2026-04-30 20:09 14.06035 100.68767 2662 ft 171 kts 207°
2026-04-30 20:09 14.05474 100.68448 2624 ft 170 kts 207°
2026-04-30 20:18 14.04974 100.68166 2615 ft 167 kts 207°
2026-04-30 20:18 14.04022 100.67625 2561 ft 147 kts 207°
2026-04-30 20:19 14.02841 100.66961 2630 ft 143 kts 206°
2026-04-30 20:19 14.02259 100.66633 2627 ft 144 kts 207°
2026-04-30 20:19 14.01377 100.66135 2622 ft 144 kts 207°
2026-04-30 20:19 14.00218 100.65480 2548 ft 143 kts 206°
2026-04-30 20:20 13.99333 100.64986 2332 ft 141 kts 206°
2026-04-30 20:20 13.98458 100.64522 2093 ft 138 kts 205°
2026-04-30 20:20 13.97887 100.64237 1925 ft 140 kts 205°
2026-04-30 20:20 13.97025 100.63791 1680 ft 139 kts 209°
2026-04-30 20:21 13.95865 100.63191 1356 ft 138 kts 197°
2026-04-30 20:21 13.94943 100.62907 1090 ft 138 kts 196°
2026-04-30 20:21 13.94366 100.62627 877 ft 141 kts 207°
2026-04-30 20:21 13.93208 100.61970 452 ft 146 kts 206°
2026-04-30 20:22 13.92594 100.61643 281 ft 156 kts 208°
2026-04-30 20:22 13.91648 100.61089 69 ft 149 kts 208°
2026-04-30 20:22 13.90953 100.60709 26 ft 48 kts 210°
2026-04-30 20:22 13.90681 100.60565 22 ft 20 kts 203°
2026-04-30 20:23 13.90562 100.60521 21 ft 18 kts 188°
2026-04-30 20:23 13.90436 100.60528 20 ft 18 kts 167°
2026-04-30 20:23 13.90319 100.60557 21 ft 16 kts 166°
2026-04-30 20:23 13.90281 100.60561 21 ft 0 kts 185°
2026-04-30 20:24 13.90241 100.60538 20 ft 11 kts 228°
2026-04-30 20:24 13.90172 100.60446 18 ft 13 kts 218°
2026-04-30 20:24 13.90118 100.60403 16 ft 15 kts 218°
2026-04-30 20:24 13.90041 100.60325 13 ft 16 kts 254°
2026-04-30 20:25 13.90132 100.60185 13 ft 11 kts 312°
2026-04-30 20:25 13.90185 100.60103 13 ft 24 kts 302°
2026-04-30 20:26 13.90392 100.59738 26 ft 27 kts 305°
2026-04-30 20:26 13.90516 100.59618 30 ft 5 kts 299°
2026-04-30 20:26 13.90522 100.59607 30 ft 0 kts 299°